Location: Ackerson Creek
(37.8210°N, 119.8757°W)
Time: 15:01:53
(UTC+00:00)

COSMO-SKYMED 1 - Pass Details

Date: 13 April 2024
Orbit: 621 x 623 km, 97.9° (Epoch: 22 May)

Event Time Altitude Azimuth Distance (km) Brightness Sun altitude
Rises 12:43:26 0° 148° (SSE) 2,892 6.2 -9.0°
Reaches altitude 10° 12:45:43 10° 141° (SE) 1,990 5.4 -8.5°
Maximum altitude 12:49:44 39° 72° (ENE) 940 4.3 -7.8°
Drops below altitude 10° 12:53:48 10° 4° (N) 2,003 5.5 -7.0°
Sets 12:56:05 0° 357° (N) 2,914 6.2 -6.6°
